Year,Month,Day,Hour,Minute,Value (Times are PST for temperature in C)
2016,03,30,00,00,8.10
2016,03,30,00,01,8.00
2016,03,30,00,02,8.00
2016,03,30,00,03,8.00
2016,03,30,00,04,8.00
2016,03,30,00,05,8.00
2016,03,30,00,06,8.00
2016,03,30,00,07,8.00
2016,03,30,00,08,8.00
2016,03,30,00,09,8.00
2016,03,30,00,10,8.00
2016,03,30,00,11,7.90
2016,03,30,00,12,7.90
2016,03,30,00,13,7.90
2016,03,30,00,14,7.90
2016,03,30,00,15,7.80
2016,03,30,00,16,7.80
2016,03,30,00,17,7.80
2016,03,30,00,18,7.70
2016,03,30,00,19,7.70
2016,03,30,00,20,7.70
2016,03,30,00,21,7.70
2016,03,30,00,22,7.70
2016,03,30,00,23,7.80
2016,03,30,00,24,7.80
2016,03,30,00,25,7.80
2016,03,30,00,26,7.80
2016,03,30,00,27,7.80
2016,03,30,00,28,7.80
2016,03,30,00,29,7.70
2016,03,30,00,30,7.80
2016,03,30,00,31,7.80
2016,03,30,00,32,7.80
2016,03,30,00,33,7.80
2016,03,30,00,34,7.80
2016,03,30,00,35,7.80
2016,03,30,00,36,7.80
2016,03,30,00,37,7.90
2016,03,30,00,38,7.90
2016,03,30,00,39,7.90
2016,03,30,00,40,7.90
2016,03,30,00,41,7.90
2016,03,30,00,42,7.90
2016,03,30,00,43,7.90
2016,03,30,00,44,7.90
2016,03,30,00,45,7.90
2016,03,30,00,46,7.80
2016,03,30,00,47,7.80
2016,03,30,00,48,7.80
2016,03,30,00,49,7.70
2016,03,30,00,50,7.70
2016,03,30,00,51,7.60
2016,03,30,00,52,7.60
2016,03,30,00,53,7.60
2016,03,30,00,54,7.50
2016,03,30,00,55,7.50
2016,03,30,00,56,7.50
2016,03,30,00,57,7.40
2016,03,30,00,58,7.50
2016,03,30,00,59,7.50
2016,03,30,01,00,7.50
2016,03,30,01,01,7.50
2016,03,30,01,02,7.50
2016,03,30,01,03,7.50
2016,03,30,01,04,7.50
2016,03,30,01,05,7.50
2016,03,30,01,06,7.50
2016,03,30,01,07,7.50
2016,03,30,01,08,7.50
2016,03,30,01,09,7.60
2016,03,30,01,10,7.60
2016,03,30,01,11,7.70
2016,03,30,01,12,7.70
2016,03,30,01,13,7.70
2016,03,30,01,14,7.70
2016,03,30,01,15,7.60
2016,03,30,01,16,7.60
2016,03,30,01,17,7.50
2016,03,30,01,18,7.40
2016,03,30,01,19,7.30
2016,03,30,01,20,7.30
2016,03,30,01,21,7.30
2016,03,30,01,22,7.30
2016,03,30,01,23,7.40
2016,03,30,01,24,7.40
2016,03,30,01,25,7.50
2016,03,30,01,26,7.50
2016,03,30,01,27,7.50
2016,03,30,01,28,7.50
2016,03,30,01,29,7.50
2016,03,30,01,30,7.50
2016,03,30,01,31,7.50
2016,03,30,01,32,7.50
2016,03,30,01,33,7.40
2016,03,30,01,34,7.40
2016,03,30,01,35,7.40
2016,03,30,01,36,7.40
2016,03,30,01,37,7.40
2016,03,30,01,38,7.40
2016,03,30,01,39,7.40
2016,03,30,01,40,7.40
2016,03,30,01,41,7.40
2016,03,30,01,42,7.40
2016,03,30,01,43,7.30
2016,03,30,01,44,7.30
2016,03,30,01,45,7.20
2016,03,30,01,46,7.20
2016,03,30,01,47,7.10
2016,03,30,01,48,7.10
2016,03,30,01,49,7.10
2016,03,30,01,50,7.10
2016,03,30,01,51,7.00
2016,03,30,01,52,7.00
2016,03,30,01,53,6.90
2016,03,30,01,54,6.90
2016,03,30,01,55,6.90
2016,03,30,01,56,6.90
2016,03,30,01,57,6.90
2016,03,30,01,58,6.90
2016,03,30,01,59,6.90
2016,03,30,02,00,6.90
2016,03,30,02,01,6.80
2016,03,30,02,02,6.80
2016,03,30,02,03,6.80
2016,03,30,02,04,6.80
2016,03,30,02,05,6.70
2016,03,30,02,06,6.70
2016,03,30,02,07,6.60
2016,03,30,02,08,6.60
2016,03,30,02,09,6.60
2016,03,30,02,10,6.60
2016,03,30,02,11,6.60
2016,03,30,02,12,6.60
2016,03,30,02,13,6.60
2016,03,30,02,14,6.70
2016,03,30,02,15,6.70
2016,03,30,02,16,6.80
2016,03,30,02,17,6.90
2016,03,30,02,18,6.90
2016,03,30,02,19,6.90
2016,03,30,02,20,6.90
2016,03,30,02,21,6.90
2016,03,30,02,22,6.80
2016,03,30,02,23,6.70
2016,03,30,02,24,6.70
2016,03,30,02,25,6.80
2016,03,30,02,26,6.80
2016,03,30,02,27,6.80
2016,03,30,02,28,6.70
2016,03,30,02,29,6.70
2016,03,30,02,30,6.70
2016,03,30,02,31,6.80
2016,03,30,02,32,6.80
2016,03,30,02,33,6.90
2016,03,30,02,34,7.00
2016,03,30,02,35,7.10
2016,03,30,02,36,7.30
2016,03,30,02,37,7.30
2016,03,30,02,38,7.40
2016,03,30,02,39,7.40
2016,03,30,02,40,7.40
2016,03,30,02,41,7.40
2016,03,30,02,42,7.40
2016,03,30,02,43,7.40
2016,03,30,02,44,7.40
2016,03,30,02,45,7.40
2016,03,30,02,46,7.40
2016,03,30,02,47,7.40
2016,03,30,02,48,7.40
2016,03,30,02,49,7.40
2016,03,30,02,50,7.40
2016,03,30,02,51,7.40
2016,03,30,02,52,7.40
2016,03,30,02,53,7.50
2016,03,30,02,54,7.50
2016,03,30,02,55,7.50
2016,03,30,02,56,7.50
2016,03,30,02,57,7.50
2016,03,30,02,58,7.40
2016,03,30,02,59,7.40
2016,03,30,03,00,7.40
2016,03,30,03,01,7.30
2016,03,30,03,02,7.30
2016,03,30,03,03,7.20
2016,03,30,03,04,7.20
2016,03,30,03,05,7.20
2016,03,30,03,06,7.10
2016,03,30,03,07,7.10
2016,03,30,03,08,7.00
2016,03,30,03,09,7.00
2016,03,30,03,10,6.90
2016,03,30,03,11,6.90
2016,03,30,03,12,6.90
2016,03,30,03,13,6.90
2016,03,30,03,14,6.90
2016,03,30,03,15,6.90
2016,03,30,03,16,6.90
2016,03,30,03,17,6.80
2016,03,30,03,18,6.80
2016,03,30,03,19,6.80
2016,03,30,03,20,6.70
2016,03,30,03,21,6.70
2016,03,30,03,22,6.70
2016,03,30,03,23,6.70
2016,03,30,03,24,6.70
2016,03,30,03,25,6.70
2016,03,30,03,26,6.70
2016,03,30,03,27,6.70
2016,03,30,03,28,6.70
2016,03,30,03,29,6.70
2016,03,30,03,30,6.70
2016,03,30,03,31,6.70
2016,03,30,03,32,6.70
2016,03,30,03,33,6.80
2016,03,30,03,34,6.80
2016,03,30,03,35,6.80
2016,03,30,03,36,6.70
2016,03,30,03,37,6.70
2016,03,30,03,38,6.60
2016,03,30,03,39,6.50
2016,03,30,03,40,6.40
2016,03,30,03,41,6.40
2016,03,30,03,42,6.30
2016,03,30,03,43,6.30
2016,03,30,03,44,6.30
2016,03,30,03,45,6.30
2016,03,30,03,46,6.30
2016,03,30,03,47,6.40
2016,03,30,03,48,6.50
2016,03,30,03,49,6.50
2016,03,30,03,50,6.70
2016,03,30,03,51,6.70
2016,03,30,03,52,6.70
2016,03,30,03,53,6.70
2016,03,30,03,54,6.70
2016,03,30,03,55,6.70
2016,03,30,03,56,6.70
2016,03,30,03,57,6.60
2016,03,30,03,58,6.60
2016,03,30,03,59,6.60
2016,03,30,04,00,6.50
2016,03,30,04,01,6.50
2016,03,30,04,02,6.40
2016,03,30,04,03,6.40
2016,03,30,04,04,6.30
2016,03,30,04,05,6.30
2016,03,30,04,06,6.30
2016,03,30,04,07,6.20
2016,03,30,04,08,6.20
2016,03,30,04,09,6.20
2016,03,30,04,10,6.10
2016,03,30,04,11,6.10
2016,03,30,04,12,6.20
2016,03,30,04,13,6.20
2016,03,30,04,14,6.30
2016,03,30,04,15,6.30
2016,03,30,04,16,6.40
2016,03,30,04,17,6.40
2016,03,30,04,18,6.50
2016,03,30,04,19,6.60
2016,03,30,04,20,6.60
2016,03,30,04,21,6.60
2016,03,30,04,22,6.70
2016,03,30,04,23,6.70
2016,03,30,04,24,6.70
2016,03,30,04,25,6.70
2016,03,30,04,26,6.70
2016,03,30,04,27,6.70
2016,03,30,04,28,6.70
2016,03,30,04,29,6.70
2016,03,30,04,30,6.70
2016,03,30,04,31,6.70
2016,03,30,04,32,6.60
2016,03,30,04,33,6.60
2016,03,30,04,34,6.60
2016,03,30,04,35,6.60
2016,03,30,04,36,6.60
2016,03,30,04,37,6.60
2016,03,30,04,38,6.50
2016,03,30,04,39,6.40
2016,03,30,04,40,6.40
2016,03,30,04,41,6.40
2016,03,30,04,42,6.30
2016,03,30,04,43,6.30
2016,03,30,04,44,6.30
2016,03,30,04,45,6.40
2016,03,30,04,46,6.40
2016,03,30,04,47,6.40
2016,03,30,04,48,6.30
2016,03,30,04,49,6.30
2016,03,30,04,50,6.30
2016,03,30,04,51,6.30
2016,03,30,04,52,6.30
2016,03,30,04,53,6.30
2016,03,30,04,54,6.40
2016,03,30,04,55,6.40
2016,03,30,04,56,6.40
2016,03,30,04,57,6.50
2016,03,30,04,58,6.40
2016,03,30,04,59,6.40
2016,03,30,05,00,6.30
2016,03,30,05,01,6.20
2016,03,30,05,02,6.20
2016,03,30,05,03,6.10
2016,03,30,05,04,6.10
2016,03,30,05,05,6.10
2016,03,30,05,06,6.20
2016,03,30,05,07,6.20
2016,03,30,05,08,6.30
2016,03,30,05,09,6.30
2016,03,30,05,10,6.40
2016,03,30,05,11,6.30
2016,03,30,05,12,6.30
2016,03,30,05,13,6.30
2016,03,30,05,14,6.30
2016,03,30,05,15,6.30
2016,03,30,05,16,6.40
2016,03,30,05,17,6.50
2016,03,30,05,18,6.70
2016,03,30,05,19,6.80
2016,03,30,05,20,6.90
2016,03,30,05,21,6.90
2016,03,30,05,22,7.00
2016,03,30,05,23,6.90
2016,03,30,05,24,6.90
2016,03,30,05,25,6.90
2016,03,30,05,26,6.80
2016,03,30,05,27,6.80
2016,03,30,05,28,6.70
2016,03,30,05,29,6.60
2016,03,30,05,30,6.60
2016,03,30,05,31,6.50
2016,03,30,05,32,6.40
2016,03,30,05,33,6.40
2016,03,30,05,34,6.30
2016,03,30,05,35,6.30
2016,03,30,05,36,6.30
2016,03,30,05,37,6.20
2016,03,30,05,38,6.20
2016,03,30,05,39,6.20
2016,03,30,05,40,6.10
2016,03,30,05,41,6.00
2016,03,30,05,42,6.00
2016,03,30,05,43,5.90
2016,03,30,05,44,5.90
2016,03,30,05,45,5.90
2016,03,30,05,46,5.90
2016,03,30,05,47,5.80
2016,03,30,05,48,5.80
2016,03,30,05,49,5.80
2016,03,30,05,50,5.70
2016,03,30,05,51,5.70
2016,03,30,05,52,5.70
2016,03,30,05,53,5.60
2016,03,30,05,54,5.60
2016,03,30,05,55,5.70
2016,03,30,05,56,5.70
2016,03,30,05,57,5.70
2016,03,30,05,58,5.70
2016,03,30,05,59,5.70
2016,03,30,06,00,5.70
2016,03,30,06,01,5.70
2016,03,30,06,02,5.80
2016,03,30,06,03,5.80
2016,03,30,06,04,5.80
2016,03,30,06,05,5.90
2016,03,30,06,06,5.90
2016,03,30,06,07,6.00
2016,03,30,06,08,6.10
2016,03,30,06,09,6.10
2016,03,30,06,10,6.20
2016,03,30,06,11,6.20
2016,03,30,06,12,6.30
2016,03,30,06,13,6.30
2016,03,30,06,14,6.30
2016,03,30,06,15,6.20
2016,03,30,06,16,6.20
2016,03,30,06,17,6.20
2016,03,30,06,18,6.20
2016,03,30,06,19,6.20
2016,03,30,06,20,6.20
2016,03,30,06,21,6.20
2016,03,30,06,22,6.20
2016,03,30,06,23,6.20
2016,03,30,06,24,6.20
2016,03,30,06,25,6.10
2016,03,30,06,26,6.10
2016,03,30,06,27,6.10
2016,03,30,06,28,6.10
2016,03,30,06,29,6.10
2016,03,30,06,30,6.20
2016,03,30,06,31,6.20
2016,03,30,06,32,6.30
2016,03,30,06,33,6.30
2016,03,30,06,34,6.50
2016,03,30,06,35,6.60
2016,03,30,06,36,6.60
2016,03,30,06,37,6.60
2016,03,30,06,38,6.60
2016,03,30,06,39,6.50
2016,03,30,06,40,6.50
2016,03,30,06,41,6.40
2016,03,30,06,42,6.40
2016,03,30,06,43,6.40
2016,03,30,06,44,6.30
2016,03,30,06,45,6.30
2016,03,30,06,46,6.30
2016,03,30,06,47,6.20
2016,03,30,06,48,6.20
2016,03,30,06,49,6.20
2016,03,30,06,50,6.10
2016,03,30,06,51,6.10
2016,03,30,06,52,6.10
2016,03,30,06,53,6.10
2016,03,30,06,54,6.10
2016,03,30,06,55,6.10
2016,03,30,06,56,6.10
2016,03,30,06,57,6.10
2016,03,30,06,58,6.10
2016,03,30,06,59,6.10
2016,03,30,07,00,6.10
2016,03,30,07,01,6.10
2016,03,30,07,02,6.10
2016,03,30,07,03,6.10
2016,03,30,07,04,6.10
2016,03,30,07,05,6.10
2016,03,30,07,06,6.10
2016,03,30,07,07,6.10
2016,03,30,07,08,6.10
2016,03,30,07,09,6.00
2016,03,30,07,10,6.00
2016,03,30,07,11,6.00
2016,03,30,07,12,5.90
2016,03,30,07,13,5.90
2016,03,30,07,14,5.90
2016,03,30,07,15,5.90
2016,03,30,07,16,5.90
2016,03,30,07,17,5.90
2016,03,30,07,18,6.00
2016,03,30,07,19,6.10
2016,03,30,07,20,6.10
2016,03,30,07,21,6.10
2016,03,30,07,22,6.20
2016,03,30,07,23,6.30
2016,03,30,07,24,6.30
2016,03,30,07,25,6.30
2016,03,30,07,26,6.30
2016,03,30,07,27,6.30
2016,03,30,07,28,6.30
2016,03,30,07,29,6.30
2016,03,30,07,30,6.30
2016,03,30,07,31,6.30
2016,03,30,07,32,6.30
2016,03,30,07,33,6.20
2016,03,30,07,34,6.20
2016,03,30,07,35,6.10
2016,03,30,07,36,6.00
2016,03,30,07,37,5.90
2016,03,30,07,38,5.90
2016,03,30,07,39,5.90
2016,03,30,07,40,5.90
2016,03,30,07,41,5.90
2016,03,30,07,42,6.00
2016,03,30,07,43,6.10
2016,03,30,07,44,6.10
2016,03,30,07,45,6.10
2016,03,30,07,46,6.20
2016,03,30,07,47,6.20
2016,03,30,07,48,6.20
2016,03,30,07,49,6.30
2016,03,30,07,50,6.30
2016,03,30,07,51,6.30
2016,03,30,07,52,6.30
2016,03,30,07,53,6.30
2016,03,30,07,54,6.30
2016,03,30,07,55,6.40
2016,03,30,07,56,6.40
2016,03,30,07,57,6.40
2016,03,30,07,58,6.50
2016,03,30,07,59,6.60
2016,03,30,08,00,6.70
2016,03,30,08,01,6.80
2016,03,30,08,02,6.80
2016,03,30,08,03,6.80
2016,03,30,08,04,6.80
2016,03,30,08,05,6.80
2016,03,30,08,06,6.70
2016,03,30,08,07,6.70
2016,03,30,08,08,6.70
2016,03,30,08,09,6.70
2016,03,30,08,10,6.80
2016,03,30,08,11,6.80
2016,03,30,08,12,6.80
2016,03,30,08,13,6.80
2016,03,30,08,14,6.80
2016,03,30,08,15,6.90
2016,03,30,08,16,6.90
2016,03,30,08,17,6.90
2016,03,30,08,18,7.00
2016,03,30,08,19,7.00
2016,03,30,08,20,7.10
2016,03,30,08,21,7.10
2016,03,30,08,22,7.20
2016,03,30,08,23,7.30
2016,03,30,08,24,7.30
2016,03,30,08,25,7.40
2016,03,30,08,26,7.50
2016,03,30,08,27,7.60
2016,03,30,08,28,7.60
2016,03,30,08,29,7.70
2016,03,30,08,30,7.80
2016,03,30,08,31,7.80
2016,03,30,08,32,7.90
2016,03,30,08,33,7.90
2016,03,30,08,34,8.00
2016,03,30,08,35,8.10
2016,03,30,08,36,8.20
2016,03,30,08,37,8.30
2016,03,30,08,38,8.30
2016,03,30,08,39,8.40
2016,03,30,08,40,8.50
2016,03,30,08,41,8.60
2016,03,30,08,42,8.70
2016,03,30,08,43,8.80
2016,03,30,08,44,8.90
2016,03,30,08,45,8.90
2016,03,30,08,46,9.00
2016,03,30,08,47,9.10
2016,03,30,08,48,9.20
2016,03,30,08,49,9.20
2016,03,30,08,50,9.20
2016,03,30,08,51,9.30
2016,03,30,08,52,9.30
2016,03,30,08,53,9.30
2016,03,30,08,54,9.30
2016,03,30,08,55,9.30
2016,03,30,08,56,9.30
2016,03,30,08,57,9.30
2016,03,30,08,58,9.30
2016,03,30,08,59,9.30
2016,03,30,09,00,9.20
2016,03,30,09,01,9.20
2016,03,30,09,02,9.20
2016,03,30,09,03,9.20
2016,03,30,09,04,9.20
2016,03,30,09,05,9.30
2016,03,30,09,06,9.30
2016,03,30,09,07,9.30
2016,03,30,09,08,9.30
2016,03,30,09,09,9.30
2016,03,30,09,10,9.30
2016,03,30,09,11,9.30
2016,03,30,09,12,9.30
2016,03,30,09,13,9.30
2016,03,30,09,14,9.30
2016,03,30,09,15,9.30
2016,03,30,09,16,9.30
2016,03,30,09,17,9.30
2016,03,30,09,18,9.40
2016,03,30,09,19,9.40
2016,03,30,09,20,9.40
2016,03,30,09,21,9.50
2016,03,30,09,22,9.60
2016,03,30,09,23,9.60
2016,03,30,09,24,9.70
2016,03,30,09,25,9.80
2016,03,30,09,26,9.80
2016,03,30,09,27,9.90
2016,03,30,09,28,10.00
2016,03,30,09,29,10.10
2016,03,30,09,30,10.20
2016,03,30,09,31,10.20
2016,03,30,09,32,10.30
2016,03,30,09,33,10.30
2016,03,30,09,34,10.40
2016,03,30,09,35,10.40
2016,03,30,09,36,10.50
2016,03,30,09,37,10.50
2016,03,30,09,38,10.60
2016,03,30,09,39,10.60
2016,03,30,09,40,10.60
2016,03,30,09,41,10.60
2016,03,30,09,42,10.70
2016,03,30,09,43,10.70
2016,03,30,09,44,10.70
2016,03,30,09,45,10.80
2016,03,30,09,46,10.80
2016,03,30,09,47,10.80
2016,03,30,09,48,10.90
2016,03,30,09,49,10.90
2016,03,30,09,50,11.00
2016,03,30,09,51,11.00
2016,03,30,09,52,11.00
2016,03,30,09,53,11.10
2016,03,30,09,54,11.10
2016,03,30,09,55,11.20
2016,03,30,09,56,11.20
2016,03,30,09,57,11.30
2016,03,30,09,58,11.30
2016,03,30,09,59,11.40
2016,03,30,10,00,11.50
2016,03,30,10,01,11.60
2016,03,30,10,02,11.80
2016,03,30,10,03,11.90
2016,03,30,10,04,12.00
2016,03,30,10,05,12.10
2016,03,30,10,06,12.10
2016,03,30,10,07,12.20
2016,03,30,10,08,12.30
2016,03,30,10,09,12.30
2016,03,30,10,10,12.40
2016,03,30,10,11,12.40
2016,03,30,10,12,12.50
2016,03,30,10,13,12.60
2016,03,30,10,14,12.70
2016,03,30,10,15,12.70
2016,03,30,10,16,12.80
2016,03,30,10,17,12.80
2016,03,30,10,18,12.90
2016,03,30,10,19,13.00
2016,03,30,10,20,13.10
2016,03,30,10,21,13.10
2016,03,30,10,22,13.20
2016,03,30,10,23,13.30
2016,03,30,10,24,13.40
2016,03,30,10,25,13.50
2016,03,30,10,26,13.60
2016,03,30,10,27,13.70
2016,03,30,10,28,13.70
2016,03,30,10,29,13.70
2016,03,30,10,30,13.60
2016,03,30,10,31,13.60
2016,03,30,10,32,13.70
2016,03,30,10,33,13.60
2016,03,30,10,34,13.60
2016,03,30,10,35,13.60
2016,03,30,10,36,13.60
2016,03,30,10,37,13.60
2016,03,30,10,38,13.60
2016,03,30,10,39,13.70
2016,03,30,10,40,13.70
2016,03,30,10,41,13.80
2016,03,30,10,42,13.90
2016,03,30,10,43,13.90
2016,03,30,10,44,14.00
2016,03,30,10,45,14.00
2016,03,30,10,46,14.10
2016,03,30,10,47,14.10
2016,03,30,10,48,14.10
2016,03,30,10,49,14.10
2016,03,30,10,50,14.10
2016,03,30,10,51,14.00
2016,03,30,10,52,14.00
2016,03,30,10,53,13.90
2016,03,30,10,54,13.90
2016,03,30,10,55,13.90
2016,03,30,10,56,14.00
2016,03,30,10,57,14.00
2016,03,30,10,58,14.00
2016,03,30,10,59,14.10
2016,03,30,11,00,14.00
2016,03,30,11,01,14.00
2016,03,30,11,02,14.00
2016,03,30,11,03,14.00
2016,03,30,11,04,14.00
2016,03,30,11,05,14.00
2016,03,30,11,06,14.00
2016,03,30,11,07,14.00
2016,03,30,11,08,14.00
2016,03,30,11,09,14.00
2016,03,30,11,10,14.00
2016,03,30,11,11,14.00
2016,03,30,11,12,14.10
2016,03,30,11,13,14.00
2016,03,30,11,14,14.00
2016,03,30,11,15,14.00
2016,03,30,11,16,14.00
2016,03,30,11,17,14.00
2016,03,30,11,18,14.00
2016,03,30,11,19,14.10
2016,03,30,11,20,14.20
2016,03,30,11,21,14.20
2016,03,30,11,22,14.30
2016,03,30,11,23,14.30
2016,03,30,11,24,14.30
2016,03,30,11,25,14.20
2016,03,30,11,26,14.20
2016,03,30,11,27,14.20
2016,03,30,11,28,14.20
2016,03,30,11,29,14.20
2016,03,30,11,30,14.20
2016,03,30,11,31,14.20
2016,03,30,11,32,14.20
2016,03,30,11,33,14.20
2016,03,30,11,34,14.20
2016,03,30,11,35,14.30
2016,03,30,11,36,14.30
2016,03,30,11,37,14.40
2016,03,30,11,38,14.40
2016,03,30,11,39,14.40
2016,03,30,11,40,14.50
2016,03,30,11,41,14.60
2016,03,30,11,42,14.60
2016,03,30,11,43,14.70
2016,03,30,11,44,14.70
2016,03,30,11,45,14.80
2016,03,30,11,46,14.80
2016,03,30,11,47,14.80
2016,03,30,11,48,14.80
2016,03,30,11,49,14.80
2016,03,30,11,50,14.80
2016,03,30,11,51,14.80
2016,03,30,11,52,14.80
2016,03,30,11,53,14.90
2016,03,30,11,54,15.00
2016,03,30,11,55,15.10
2016,03,30,11,56,15.20
2016,03,30,11,57,15.20
2016,03,30,11,58,15.20
2016,03,30,11,59,15.20
2016,03,30,12,00,15.30
2016,03,30,12,01,15.30
2016,03,30,12,02,15.30
2016,03,30,12,03,15.40
2016,03,30,12,04,15.40
2016,03,30,12,05,15.40
2016,03,30,12,06,15.40
2016,03,30,12,07,15.40
2016,03,30,12,08,15.40
2016,03,30,12,09,15.40
2016,03,30,12,10,15.40
2016,03,30,12,11,15.50
2016,03,30,12,12,15.50
2016,03,30,12,13,15.60
2016,03,30,12,14,15.70
2016,03,30,12,15,15.70
2016,03,30,12,16,15.80
2016,03,30,12,17,15.80
2016,03,30,12,18,15.90
2016,03,30,12,19,16.00
2016,03,30,12,20,16.00
2016,03,30,12,21,16.10
2016,03,30,12,22,16.10
2016,03,30,12,23,16.10
2016,03,30,12,24,16.00
2016,03,30,12,25,16.10
2016,03,30,12,26,16.10
2016,03,30,12,27,16.20
2016,03,30,12,28,16.10
2016,03,30,12,29,16.10
2016,03,30,12,30,16.00
2016,03,30,12,31,16.00
2016,03,30,12,32,15.90
2016,03,30,12,33,15.90
2016,03,30,12,34,15.90
2016,03,30,12,35,15.90
2016,03,30,12,36,16.00
2016,03,30,12,37,16.00
2016,03,30,12,38,16.10
2016,03,30,12,39,16.10
2016,03,30,12,40,16.10
2016,03,30,12,41,16.20
2016,03,30,12,42,16.20
2016,03,30,12,43,16.30
2016,03,30,12,44,16.40
2016,03,30,12,45,16.40
2016,03,30,12,46,16.40
2016,03,30,12,47,16.40
2016,03,30,12,48,16.50
2016,03,30,12,49,16.60
2016,03,30,12,50,16.60
2016,03,30,12,51,16.60
2016,03,30,12,52,16.60
2016,03,30,12,53,16.70
2016,03,30,12,54,16.70
2016,03,30,12,55,16.70
2016,03,30,12,56,16.70
2016,03,30,12,57,16.70
2016,03,30,12,58,16.80
2016,03,30,12,59,16.80
2016,03,30,13,00,16.80
2016,03,30,13,01,16.80
2016,03,30,13,02,16.90
2016,03,30,13,03,16.90
2016,03,30,13,04,17.00
2016,03,30,13,05,17.00
2016,03,30,13,06,17.10
2016,03,30,13,07,17.10
2016,03,30,13,08,17.10
2016,03,30,13,09,17.20
2016,03,30,13,10,17.20
2016,03,30,13,11,17.20
2016,03,30,13,12,17.30
2016,03,30,13,13,17.30
2016,03,30,13,14,17.30
2016,03,30,13,15,17.30
2016,03,30,13,16,17.40
2016,03,30,13,17,17.30
2016,03,30,13,18,17.30
2016,03,30,13,19,17.30
2016,03,30,13,20,17.30
2016,03,30,13,21,17.20
2016,03,30,13,22,17.20
2016,03,30,13,23,17.20
2016,03,30,13,24,17.30
2016,03,30,13,25,17.30
2016,03,30,13,26,17.30
2016,03,30,13,27,17.30
2016,03,30,13,28,17.40
2016,03,30,13,29,17.40
2016,03,30,13,30,17.50
2016,03,30,13,31,17.50
2016,03,30,13,32,17.60
2016,03,30,13,33,17.60
2016,03,30,13,34,17.60
2016,03,30,13,35,17.60
2016,03,30,13,36,17.70
2016,03,30,13,37,17.70
2016,03,30,13,38,17.70
2016,03,30,13,39,17.60
2016,03,30,13,40,17.60
2016,03,30,13,41,17.50
2016,03,30,13,42,17.50
2016,03,30,13,43,17.50
2016,03,30,13,44,17.50
2016,03,30,13,45,17.60
2016,03,30,13,46,17.60
2016,03,30,13,47,17.70
2016,03,30,13,48,17.70
2016,03,30,13,49,17.70
2016,03,30,13,50,17.70
2016,03,30,13,51,17.70
2016,03,30,13,52,17.70
2016,03,30,13,53,17.80
2016,03,30,13,54,17.90
2016,03,30,13,55,18.00
2016,03,30,13,56,18.10
2016,03,30,13,57,18.20
2016,03,30,13,58,18.20
2016,03,30,13,59,18.10
2016,03,30,14,00,18.10
2016,03,30,14,01,18.00
2016,03,30,14,02,18.00
2016,03,30,14,03,18.00
2016,03,30,14,04,18.00
2016,03,30,14,05,18.00
2016,03,30,14,06,18.00
2016,03,30,14,07,18.00
2016,03,30,14,08,17.90
2016,03,30,14,09,17.90
2016,03,30,14,10,17.90
2016,03,30,14,11,17.90
2016,03,30,14,12,17.90
2016,03,30,14,13,17.90
2016,03,30,14,14,18.00
2016,03,30,14,15,18.00
2016,03,30,14,16,18.10
2016,03,30,14,17,18.20
2016,03,30,14,18,18.20
2016,03,30,14,19,18.30
2016,03,30,14,20,18.20
2016,03,30,14,21,18.10
2016,03,30,14,22,18.00
2016,03,30,14,23,17.90
2016,03,30,14,24,17.90
2016,03,30,14,25,17.80
2016,03,30,14,26,17.80
2016,03,30,14,27,17.80
2016,03,30,14,28,17.80
2016,03,30,14,29,17.90
2016,03,30,14,30,17.90
2016,03,30,14,31,17.90
2016,03,30,14,32,17.90
2016,03,30,14,33,17.80
2016,03,30,14,34,17.80
2016,03,30,14,35,17.80
2016,03,30,14,36,17.80
2016,03,30,14,37,17.80
2016,03,30,14,38,17.90
2016,03,30,14,39,18.00
2016,03,30,14,40,18.00
2016,03,30,14,41,18.10
2016,03,30,14,42,18.20
2016,03,30,14,43,18.20
2016,03,30,14,44,18.20
2016,03,30,14,45,18.20
2016,03,30,14,46,18.20
2016,03,30,14,47,18.20
2016,03,30,14,48,18.20
2016,03,30,14,49,18.20
2016,03,30,14,50,18.20
2016,03,30,14,51,18.30
2016,03,30,14,52,18.30
2016,03,30,14,53,18.30
2016,03,30,14,54,18.20
2016,03,30,14,55,18.20
2016,03,30,14,56,18.20
2016,03,30,14,57,18.10
2016,03,30,14,58,18.10
2016,03,30,14,59,18.10
2016,03,30,15,00,18.20
2016,03,30,15,01,18.20
2016,03,30,15,02,18.20
2016,03,30,15,03,18.20
2016,03,30,15,04,18.20
2016,03,30,15,05,18.20
2016,03,30,15,06,18.20
2016,03,30,15,07,18.30
2016,03,30,15,08,18.30
2016,03,30,15,09,18.30
2016,03,30,15,10,18.30
2016,03,30,15,11,18.40
2016,03,30,15,12,18.40
2016,03,30,15,13,18.40
2016,03,30,15,14,18.50
2016,03,30,15,15,18.50
2016,03,30,15,16,18.50
2016,03,30,15,17,18.50
2016,03,30,15,18,18.40
2016,03,30,15,19,18.40
2016,03,30,15,20,18.40
2016,03,30,15,21,18.40
2016,03,30,15,22,18.40
2016,03,30,15,23,18.30
2016,03,30,15,24,18.30
2016,03,30,15,25,18.30
2016,03,30,15,26,18.40
2016,03,30,15,27,18.40
2016,03,30,15,28,18.40
2016,03,30,15,29,18.40
2016,03,30,15,30,18.30
2016,03,30,15,31,18.30
2016,03,30,15,32,18.40
2016,03,30,15,33,18.40
2016,03,30,15,34,18.40
2016,03,30,15,35,18.40
2016,03,30,15,36,18.40
2016,03,30,15,37,18.40
2016,03,30,15,38,18.40
2016,03,30,15,39,18.40
2016,03,30,15,40,18.40
2016,03,30,15,41,18.30
2016,03,30,15,42,18.30
2016,03,30,15,43,18.30
2016,03,30,15,44,18.30
2016,03,30,15,45,18.30
2016,03,30,15,46,18.30
2016,03,30,15,47,18.30
2016,03,30,15,48,18.30
2016,03,30,15,49,18.30
2016,03,30,15,50,18.40
2016,03,30,15,51,18.50
2016,03,30,15,52,18.50
2016,03,30,15,53,18.60
2016,03,30,15,54,18.80
2016,03,30,15,55,18.80
2016,03,30,15,56,18.90
2016,03,30,15,57,19.00
2016,03,30,15,58,19.00
2016,03,30,15,59,19.10
2016,03,30,16,00,19.10
2016,03,30,16,01,19.00
2016,03,30,16,02,18.90
2016,03,30,16,03,18.90
2016,03,30,16,04,18.90
2016,03,30,16,05,18.90
2016,03,30,16,06,19.00
2016,03,30,16,07,19.10
2016,03,30,16,08,19.10
2016,03,30,16,09,19.20
2016,03,30,16,10,19.20
2016,03,30,16,11,19.20
2016,03,30,16,12,19.20
2016,03,30,16,13,19.20
2016,03,30,16,14,19.20
2016,03,30,16,15,19.20
2016,03,30,16,16,19.20
2016,03,30,16,17,19.30
2016,03,30,16,18,19.30
2016,03,30,16,19,19.30
2016,03,30,16,20,19.40
2016,03,30,16,21,19.50
2016,03,30,16,22,19.50
2016,03,30,16,23,19.60
2016,03,30,16,24,19.60
2016,03,30,16,25,19.60
2016,03,30,16,26,19.60
2016,03,30,16,27,19.70
2016,03,30,16,28,19.80
2016,03,30,16,29,19.90
2016,03,30,16,30,19.90
2016,03,30,16,31,20.00
2016,03,30,16,32,20.00
2016,03,30,16,33,20.00
2016,03,30,16,34,19.90
2016,03,30,16,35,19.90
2016,03,30,16,36,19.80
2016,03,30,16,37,19.70
2016,03,30,16,38,19.70
2016,03,30,16,39,19.70
2016,03,30,16,40,19.70
2016,03,30,16,41,19.60
2016,03,30,16,42,19.60
2016,03,30,16,43,19.60
2016,03,30,16,44,19.70
2016,03,30,16,45,19.70
2016,03,30,16,46,19.80
2016,03,30,16,47,19.90
2016,03,30,16,48,19.90
2016,03,30,16,49,19.90
2016,03,30,16,50,20.00
2016,03,30,16,51,20.10
2016,03,30,16,52,20.10
2016,03,30,16,53,20.20
2016,03,30,16,54,20.20
2016,03,30,16,55,20.20
2016,03,30,16,56,20.20
2016,03,30,16,57,20.30
2016,03,30,16,58,20.30
2016,03,30,16,59,20.30
2016,03,30,17,00,20.30
2016,03,30,17,01,20.30
2016,03,30,17,02,20.30
2016,03,30,17,03,20.30
2016,03,30,17,04,20.30
2016,03,30,17,05,20.30
2016,03,30,17,06,20.30
2016,03,30,17,07,20.30
2016,03,30,17,08,20.30
2016,03,30,17,09,20.30
2016,03,30,17,10,20.30
2016,03,30,17,11,20.30
2016,03,30,17,12,20.40
2016,03,30,17,13,20.40
2016,03,30,17,14,20.40
2016,03,30,17,15,20.40
2016,03,30,17,16,20.30
2016,03,30,17,17,20.30
2016,03,30,17,18,20.30
2016,03,30,17,19,20.30
2016,03,30,17,20,20.30
2016,03,30,17,21,20.30
2016,03,30,17,22,20.30
2016,03,30,17,23,20.30
2016,03,30,17,24,20.30
2016,03,30,17,25,20.30
2016,03,30,17,26,20.20
2016,03,30,17,27,20.20
2016,03,30,17,28,20.20
2016,03,30,17,29,20.20
2016,03,30,17,30,20.20
2016,03,30,17,31,20.20
2016,03,30,17,32,20.20
2016,03,30,17,33,20.20
2016,03,30,17,34,20.20
2016,03,30,17,35,20.20
2016,03,30,17,36,20.30
2016,03,30,17,37,20.30
2016,03,30,17,38,20.30
2016,03,30,17,39,20.30
2016,03,30,17,40,20.30
2016,03,30,17,41,20.40
2016,03,30,17,42,20.50
2016,03,30,17,43,20.50
2016,03,30,17,44,20.50